Regional Weather Roundup
Issued by NWS

Home | Current Version | Previous Version | Text Only | Print | Product List | Glossary On
Versions: 1 2 3 4 5 6 7 8 9 10 11 12 13 14 15 16 17 18 19 20 21 22 23 24 25 26 27 28 29 30 31 32 33 34 35 36 37 38 39 40 41 42 43 44 45 46 47 48 49 50
000
ASUS44 KFWD 231201
RWRTX
NORTH TEXAS HOURLY WEATHER ROUNDUP
NATIONAL WEATHER SERVICE FORT WORTH TX
700 AM CDT WED JUL 23 2014

NOTE: "FAIR" INDICATES FEW OR NO CLOUDS BELOW 12,000 FEET WITH NO
SIGNIFICANT WEATHER AND/OR OBSTRUCTIONS TO VISIBILITY.

TXZ118-119-231300-
DALLAS/FORT WORTH METROPLEX

CITY           SKY/WX    TMP DP  RH WIND       PRES   REMARKS
DFW AIRPORT    PTCLDY    77  69  76 CALM      30.09R
6HR MIN TEMP:  76; 6HR MAX TEMP:  82;

DALLAS LOVE    PTCLDY    76  69  79 CALM      30.09R
6HR MIN TEMP:  76; 6HR MAX TEMP:  82;

FTW MEACHAM    CLEAR     77  70  79 CALM      30.09S HAZE
6HR MIN TEMP:  76; 6HR MAX TEMP:  83;

DAL-EXECUTIVE  CLEAR     74  69  85 CALM      30.09S HAZE
6HR MIN TEMP:  73; 6HR MAX TEMP:  80;

FTW-ALLIANCE   PTCLDY    70  69  97 CALM      30.09R
6HR MIN TEMP:  70; 6HR MAX TEMP:  79;

FTW-NAS-JRB    PTCLDY    79  69  71 CALM      30.13S
6HR MIN TEMP:  79; 6HR MAX TEMP:  85;

FTW-SPINKS     CLEAR     70  68  94 CALM      30.11S FOG
ARLINGTON      CLEAR     72  69  90 CALM      30.09S FOG
6HR MIN TEMP:  71; 6HR MAX TEMP:  82; 6HR PCP: TRACE;

ADDISON        PTCLDY    77  68  73 S3        30.09S
MESQUITE       CLEAR     70  70 100 CALM      30.10R FOG
LANCASTER      CLEAR     67  65  91 CALM      30.10S FOG
6HR MIN TEMP:  67; 6HR MAX TEMP:  73;

$$

TXZ091>094-102>105-117-120-121-131>134-231300-
NORTH CENTRAL TEXAS

CITY           SKY/WX    TMP DP  RH WIND       PRES   REMARKS
SHRMAN/DENISON CLEAR     73  69  85 CALM      30.11S
6HR MIN TEMP:  73; 6HR MAX TEMP:  80;

GAINESVILLE    CLEAR     72  70  95 CALM      30.13R FOG
6HR MIN TEMP:  71; 6HR MAX TEMP:  78;

BRIDGEPORT     CLEAR     70  70 100 CALM      30.13R FOG
6HR MIN TEMP:  70; 6HR MAX TEMP:  77;

DECATUR        CLEAR     76  68  77 S3        30.12R
6HR MIN TEMP:  74; 6HR MAX TEMP:  78;

DENTON         CLEAR     72  71  97 CALM      30.09S FOG
6HR MIN TEMP:  72; 6HR MAX TEMP:  80;

MCKINNEY       CLEAR     71  69  93 CALM      30.10R
6HR MIN TEMP:  71; 6HR MAX TEMP:  75;

ROCKWALL       CLEAR     72  70  93 CALM      30.09R
6HR MIN TEMP:  71; 6HR MAX TEMP:  77;

TERRELL        CLEAR     70  69  97 N5        30.10R FOG
6HR MIN TEMP:  70; 6HR MAX TEMP:  78;

CLEBURNE       CLEAR     75  73  94 E3        30.12R
GRANBURY       CLEAR     74  70  88 CALM      30.11S FOG
6HR MIN TEMP:  73; 6HR MAX TEMP:  82;

$$

TXZ083>090-098>101-113>116-127>130-139>142-154-155-231300-
WESTERN NORTH TEXAS

CITY           SKY/WX    TMP DP  RH WIND       PRES   REMARKS
WICHITA FALLS  PTCLDY    74  70  87 CALM      30.11S FOG
6HR MIN TEMP:  71; 6HR MAX TEMP:  79;

WF-KICKAPOO    CLEAR     74  70  87 CALM      30.13R
6HR MIN TEMP:  74; 6HR MAX TEMP:  80;

VERNON         CLEAR     74  69  86 CALM      30.14R
6HR MIN TEMP:  63; 6HR MAX TEMP:  99;

ABILENE        CLEAR     74  68  81 SE5       30.15R
6HR MIN TEMP:  74; 6HR MAX TEMP:  83;

ABILENE-DYESS  CLEAR     73  67  80 E2        30.14R
6HR MIN TEMP:  73; 6HR MAX TEMP:  82;

BRECKENRIDGE   CLEAR     75  69  79 E5        30.12R HAZE
6HR MIN TEMP:  75; 6HR MAX TEMP:  83;

MINERAL WELLS  CLEAR     73  69  87 CALM      30.10S FOG
6HR MIN TEMP:  73; 6HR MAX TEMP:  78;

STEPHENVILLE   CLEAR     74  70  87 CALM      30.14S
6HR MIN TEMP:  74; 6HR MAX TEMP:  79;

COMANCHE       CLEAR     73  72  95 CALM      30.14R FOG
6HR MIN TEMP:  73; 6HR MAX TEMP:  78;

BROWNWOOD      CLEAR     72  68  88 CALM      30.13R FOG
COLEMAN        CLEAR     72  67  85 CALM      30.14R
6HR MIN TEMP:  72; 6HR MAX TEMP:  80;

$$

TXZ143>147-156>162-174-175-231300-
CENTRAL TEXAS

CITY           SKY/WX    TMP DP  RH WIND       PRES   REMARKS
WACO           CLEAR     73  71  93 N3        30.08S FOG
6HR MIN TEMP:  72; 6HR MAX TEMP:  80;

WACO-TSTC      CLEAR     73  72  94 CALM      30.08  FOG
WACO-MCGREGOR  CLEAR     73  68  83 NE5       30.10S
6HR MIN TEMP:  73; 6HR MAX TEMP:  81;

HILLSBORO      CLEAR     72  69  88 CALM      30.10S FOG
6HR MIN TEMP:  72; 6HR MAX TEMP:  78;

CORSICANA      CLEAR     73  69  87 CALM      30.09S FOG
6HR MIN TEMP:  73; 6HR MAX TEMP:  78;

MEXIA          PTCLDY    73  71  93 CALM      30.08R
CAMERON        MOCLDY    76  74  93 CALM      30.07R FOG
6HR MIN TEMP:  75; 6HR MAX TEMP:  80;

TEMPLE         PTCLDY    75  70  83 CALM      30.08S
6HR MIN TEMP:  75; 6HR MAX TEMP:  81;

KILLEEN        MOCLDY    79  73  83 N3        30.09R FOG
KILLEEN-SKYLRK MOCLDY    77  70  78 NE5       30.08S
6HR MIN TEMP:  77; 6HR MAX TEMP:  81;

FORT HOOD      MOCLDY    79  74  84 CALM      30.09R
6HR MIN TEMP:  79; 6HR MAX TEMP:  83;

HAMILTON       CLEAR     75  75 100 E7        30.13R FOG
6HR MIN TEMP:  75; 6HR MAX TEMP:  80;

LAMPASAS       CLEAR     76  73  93 CALM      30.10R
6HR MIN TEMP:  76; 6HR MAX TEMP:  78;

$$

TXZ095>097-106>112-122>126-135>138-148>153-164>167-231300-
EAST TEXAS

CITY           SKY/WX    TMP DP  RH WIND       PRES   REMARKS
PARIS          CLEAR     72  64  78 CALM      30.10R
6HR MIN TEMP:  72; 6HR MAX TEMP:  77;

SULPHUR SPRNGS CLEAR     71  69  96 CALM      30.12R
6HR MIN TEMP:  71; 6HR MAX TEMP:  75;

CLARKSVILLE    CLEAR     71  70  98 CALM      30.09R
6HR MIN TEMP:  71; 6HR MAX TEMP:  76;

MOUNT PLEASANT CLEAR     69  68  98 CALM      30.10S
6HR MIN TEMP:  68; 6HR MAX TEMP:  73;

MINEOLA        CLEAR     68  68 100 CALM      30.10S
TYLER          CLEAR     72  68  87 CALM      30.09S
6HR MIN TEMP:  70; 6HR MAX TEMP:  76;

LONGVIEW       CLEAR     69  67  93 NW5       30.08S
6HR MIN TEMP:  69; 6HR MAX TEMP:  74;

MARSHALL       CLEAR     71  69  93 CALM      30.09F
6HR MIN TEMP:  71; 6HR MAX TEMP:  74;

ATHENS         CLEAR     68  68 100 CALM      30.08S FOG
JACKSONVILLE   CLEAR     73  69  87 CALM      30.11S
HENDERSON      CLEAR     69  69  99 CALM      30.10S
6HR MIN TEMP:  69; 6HR MAX TEMP:  72;

NACOGDOCHES    CLEAR     68  66  94 CALM      30.08S
6HR MIN TEMP:  68; 6HR MAX TEMP:  70;

LUFKIN         CLEAR     74  70  87 CALM      30.07R
6HR MIN TEMP:  73; 6HR MAX TEMP:  74;

$$

SUPPLEMENTAL OBSERVATIONS (CENTRAL)

CITY           SKY/WX    TMP DP  RH WIND       PRES   REMARKS
$$

SUPPLEMENTAL OBSERVATIONS (WEST)

CITY           SKY/WX    TMP DP  RH WIND       PRES   REMARKS
$$

SUPPLEMENTAL OBSERVATIONS (EAST)

CITY           SKY/WX    TMP DP  RH WIND       PRES   REMARKS
$$

SUPPLEMENTAL OBSERVATIONS ARE A COLLECTION OF AUTOMATED INSTRUMENTS
THAT ARE MAINTAINED BY A VARIETY OF FEDERAL AND STATE AGENCIES.
CERTAIN ELEMENTS...SUCH AS HUMIDITY VALUES AND SUSTAINED WIND
SPEEDS...MAY BE APPROXIMATED.



USA.gov is the U.S. government's official web portal to all federal, state and local government web resources and services.